| time (UTC) | temp C | wind direction | speed KPH | gust KPH | rain 1hr cm | rain 24hr cm | rain mn cm | humidity % | barometer mb |
| 20260906122004 | 25 | 272 | 3.2 | 11.3 | 0.00 | 0.03 | 0.03 | 92 | 1011.3 |
| 20260906121503 | 25 | 261 | 1.6 | 11.3 | 0.00 | 0.03 | 0.03 | 92 | 1011.3 |
| 20260906120504 | 25 | 254 | 3.2 | 4.8 | 0.00 | 0.03 | 0.03 | 92 | 1011.4 |
| 20260906120004 | 25 | 255 | 1.6 | 4.8 | 0.00 | 0.03 | 0.03 | 92 | 1011.3 |
| 20260906115504 | 25 | 241 | 1.6 | 4.8 | 0.00 | 0.03 | 0.03 | 92 | 1011.3 |
| 20260906115004 | 25 | 239 | 3.2 | 4.8 | 0.00 | 0.03 | 0.03 | 92 | 1011.2 |
| 20260906114504 | 25 | 243 | 1.6 | 4.8 | 0.00 | 0.03 | 0.03 | 93 | 1011.1 |
| 20260906114004 | 25 | 242 | 1.6 | 4.8 | 0.03 | 0.03 | 0.03 | 93 | 1011.1 |
| 20260906113504 | 25 | 247 | 3.2 | 4.8 | 0.03 | 0.03 | 0.03 | 93 | 1011.1 |
| 20260906113004 | 25 | 231 | 1.6 | 4.8 | 0.03 | 0.03 | 0.03 | 93 | 1010.9 |
| 20260906112504 | 25 | 270 | 1.6 | 3.2 | 0.03 | 0.03 | 0.03 | 93 | 1010.9 |
| 20260906112004 | 25 | 231 | 0.0 | 4.8 | 0.03 | 0.03 | 0.03 | 93 | 1010.8 |
| 20260906111004 | 25 | 242 | 1.6 | 3.2 | 0.03 | 0.03 | 0.03 | 93 | 1010.6 |
| 20260906110504 | 25 | 310 | 1.6 | 3.2 | 0.03 | 0.03 | 0.03 | 93 | 1010.6 |
| 20260906110004 | 25 | 255 | 0.0 | 3.2 | 0.03 | 0.03 | 0.03 | 93 | 1010.6 |
| 20260906105003 | 25 | 234 | 0.0 | 3.2 | 0.03 | 0.03 | 0.03 | 93 | 1010.5 |
| 20260906104504 | 25 | 234 | 0.0 | 3.2 | 0.03 | 0.03 | 0.03 | 93 | 1010.4 |
| 20260906104004 | 25 | 252 | 1.6 | 4.8 | 0.00 | 0.00 | 0.00 | 93 | 1010.4 |
| 20260906103504 | 25 | 252 | 1.6 | 4.8 | 0.00 | 0.00 | 0.00 | 93 | 1010.4 |
| 20260906103004 | 25 | 235 | 1.6 | 4.8 | 0.00 | 0.00 | 0.00 | 93 | 1010.3 |
| 20260906102504 | 25 | 241 | 1.6 | 4.8 | 0.00 | 0.00 | 0.00 | 93 | 1010.3 |
| 20260906101504 | 25 | 247 | 0.0 | 4.8 | 0.00 | 0.00 | 0.00 | 93 | 1010.2 |
| 20260906101004 | 25 | 247 | 3.2 | 4.8 | 0.00 | 0.00 | 0.00 | 93 | 1010.3 |
| 20260906100505 | 25 | 246 | 1.6 | 4.8 | 0.00 | 0.00 | 0.00 | 93 | 1010.2 |
| 20260906100003 | 25 | 229 | 0.0 | 0.0 | 0.00 | 0.00 | 0.00 | 93 | 1010.2 |
| 20260906095504 | 25 | 229 | 0.0 | 0.0 | 0.00 | 0.00 | 0.00 | 93 | 1010.3 |
| 20260906095004 | 25 | 229 | 0.0 | 0.0 | 0.00 | 0.00 | 0.00 | 92 | 1010.3 |
| 20260906094504 | 25 | 229 | 0.0 | 0.0 | 0.00 | 0.00 | 0.00 | 92 | 1010.3 |
| 20260906092503 | 25 | 229 | 0.0 | 0.0 | 0.00 | 0.00 | 0.00 | 92 | 1010.2 |
| 20260906092004 | 25 | 229 | 0.0 | 0.0 | 0.00 | 0.00 | 0.00 | 92 | 1010.1 |
| 20260906091504 | 25 | 229 | 0.0 | 0.0 | 0.00 | 0.00 | 0.00 | 92 | 1010.1 |
| 20260906091004 | 25 | 229 | 0.0 | 0.0 | 0.00 | 0.00 | 0.00 | 92 | 1010.1 |
| 20260906090504 | 25 | 229 | 0.0 | 0.0 | 0.00 | 0.00 | 0.00 | 92 | 1010.1 |
| 20260906090004 | 25 | 229 | 0.0 | 0.0 | 0.00 | 0.00 | 0.00 | 92 | 1010.1 |
| 20260906085504 | 25 | 229 | 0.0 | 0.0 | 0.00 | 0.00 | 0.00 | 92 | 1010.0 |
| 20260906084004 | 25 | 229 | 0.0 | 0.0 | 0.00 | 0.00 | 0.00 | 92 | 1010.0 |
| 20260906083003 | 25 | 229 | 0.0 | 0.0 | 0.00 | 0.00 | 0.00 | 92 | 1009.9 |
| 20260906082503 | 25 | 229 | 0.0 | 0.0 | 0.00 | 0.00 | 0.00 | 92 | 1009.9 |
| 20260906081504 | 25 | 229 | 0.0 | 0.0 | 0.00 | 0.00 | 0.00 | 92 | 1009.8 |
| 20260906080504 | 25 | 229 | 0.0 | 0.0 | 0.00 | 0.00 | 0.00 | 92 | 1009.8 |
| 20260906080004 | 25 | 229 | 0.0 | 0.0 | 0.00 | 0.00 | 0.00 | 92 | 1009.8 |
| 20260906075504 | 25 | 229 | 0.0 | 0.0 | 0.00 | 0.00 | 0.00 | 92 | 1009.8 |
| 20260906075004 | 25 | 229 | 0.0 | 0.0 | 0.00 | 0.00 | 0.00 | 92 | 1009.8 |
| 20260906074004 | 25 | 229 | 0.0 | 0.0 | 0.00 | 0.00 | 0.00 | 92 | 1009.9 |
| 20260906073503 | 25 | 229 | 0.0 | 0.0 | 0.00 | 0.00 | 0.00 | 92 | 1010.0 |
| 20260906072504 | 25 | 229 | 0.0 | 0.0 | 0.00 | 0.00 | 0.00 | 92 | 1009.9 |
| 20260906072004 | 25 | 229 | 0.0 | 0.0 | 0.00 | 0.00 | 0.00 | 92 | 1009.9 |
| 20260906071504 | 25 | 229 | 0.0 | 0.0 | 0.00 | 0.00 | 0.00 | 92 | 1009.9 |
| 20260906071004 | 25 | 229 | 0.0 | 0.0 | 0.00 | 0.00 | 0.00 | 92 | 1009.9 |
| 20260906070504 | 25 | 229 | 0.0 | 1.6 | 0.00 | 0.00 | 0.00 | 92 | 1009.9 |
| 20260906070004 | 25 | 229 | 0.0 | 3.2 | 0.00 | 0.00 | 0.00 | 92 | 1010.0 |
| 20260906065503 | 25 | 229 | 0.0 | 3.2 | 0.00 | 0.00 | 0.00 | 92 | 1009.9 |
| 20260906065004 | 25 | 208 | 1.6 | 3.2 | 0.00 | 0.00 | 0.00 | 92 | 1009.8 |
| 20260906064503 | 25 | 224 | 1.6 | 3.2 | 0.00 | 0.00 | 0.00 | 92 | 1009.8 |
| 20260906064004 | 25 | 270 | 1.6 | 3.2 | 0.00 | 0.00 | 0.00 | 91 | 1009.9 |
| 20260906063504 | 25 | 208 | 0.0 | 4.8 | 0.00 | 0.00 | 0.00 | 91 | 1009.9 |
| 20260906061504 | 26 | 233 | 1.6 | 4.8 | 0.00 | 0.00 | 0.00 | 91 | 1010.1 |
| 20260906061004 | 26 | 244 | 1.6 | 4.8 | 0.00 | 0.00 | 0.00 | 91 | 1010.2 |
| 20260906060503 | 26 | 249 | 0.0 | 4.8 | 0.00 | 0.00 | 0.00 | 91 | 1010.2 |
| 20260906060004 | 26 | 254 | 3.2 | 4.8 | 0.00 | 0.00 | 0.00 | 91 | 1010.3 |
| 20260906055004 | 26 | 226 | 1.6 | 4.8 | 0.00 | 0.00 | 0.00 | 91 | 1010.4 |
| 20260906054003 | 26 | 302 | 0.0 | 0.0 | 0.00 | 0.00 | 0.00 | 91 | 1010.5 |
| 20260906053503 | 26 | 306 | 0.0 | 0.0 | 0.00 | 0.00 | 0.00 | 91 | 1010.6 |
| 20260906053004 | 26 | 242 | 0.0 | 1.6 | 0.00 | 0.00 | 0.00 | 91 | 1010.4 |
| 20260906052504 | 26 | 212 | 0.0 | 3.2 | 0.00 | 0.00 | 0.00 | 91 | 1010.4 |
| 20260906052003 | 26 | 207 | 0.0 | 3.2 | 0.00 | 0.00 | 0.00 | 91 | 1010.4 |
| 20260906051504 | 26 | 174 | 1.6 | 4.8 | 0.00 | 0.00 | 0.00 | 91 | 1010.4 |
| 20260906050503 | 26 | 193 | 1.6 | 4.8 | 0.00 | 0.00 | 0.00 | 91 | 1010.5 |
| 20260906050003 | 26 | 191 | 1.6 | 4.8 | 0.00 | 0.00 | 0.00 | 91 | 1010.6 |
| 20260906045504 | 26 | 217 | 3.2 | 4.8 | 0.00 | 0.00 | 0.00 | 91 | 1010.6 |
| 20260906045003 | 26 | 187 | 3.2 | 4.8 | 0.00 | 0.00 | 0.00 | 91 | 1010.6 |
| 20260906044504 | 26 | 217 | 1.6 | 4.8 | 0.00 | 0.00 | 0.00 | 91 | 1010.6 |
| 20260906044004 | 26 | 210 | 1.6 | 4.8 | 0.00 | 0.00 | 0.00 | 91 | 1010.7 |
| 20260906043503 | 26 | 213 | 1.6 | 4.8 | 0.00 | 0.00 | 0.00 | 91 | 1010.8 |
| 20260906043004 | 26 | 221 | 1.6 | 3.2 | 0.00 | 0.00 | 0.00 | 91 | 1010.9 |
| 20260906042503 | 26 | 209 | 0.0 | 0.0 | 0.00 | 0.00 | 0.00 | 91 | 1010.9 |
| 20260906042004 | 26 | 203 | 0.0 | 0.0 | 0.00 | 0.00 | 0.00 | 91 | 1011.0 |
| 20260906041504 | 26 | 203 | 0.0 | 4.8 | 0.00 | 0.00 | 0.00 | 91 | 1011.0 |
| 20260906041003 | 26 | 203 | 0.0 | 4.8 | 0.00 | 0.00 | 0.00 | 91 | 1011.0 |
| 20260906040505 | 26 | 203 | 0.0 | 3.2 | 0.00 | 0.00 | 0.00 | 91 | 1011.0 |
| 20260906040005 | 26 | 230 | 0.0 | 3.2 | 0.00 | 0.00 | 0.00 | 91 | 1011.0 |
| 20260906035504 | 26 | 239 | 1.6 | 3.2 | 0.00 | 0.00 | 0.00 | 91 | 1011.1 |
| 20260906035004 | 26 | 221 | 0.0 | 3.2 | 0.00 | 0.00 | 0.00 | 91 | 1011.1 |
| 20260906033004 | 27 | 217 | 1.6 | 3.2 | 0.00 | 0.00 | 0.00 | 91 | 1011.3 |
| 20260906032504 | 27 | 242 | 0.0 | 3.2 | 0.00 | 0.00 | 0.00 | 91 | 1011.3 |
| 20260906031504 | 27 | 225 | 0.0 | 3.2 | 0.00 | 0.00 | 0.00 | 91 | 1011.5 |
| 20260906031004 | 27 | 225 | 0.0 | 4.8 | 0.00 | 0.00 | 0.00 | 91 | 1011.5 |
| 20260906030504 | 27 | 223 | 0.0 | 4.8 | 0.00 | 0.00 | 0.00 | 91 | 1011.4 |
| 20260906030004 | 27 | 208 | 1.6 | 4.8 | 0.00 | 0.00 | 0.00 | 91 | 1011.3 |
| 20260906025504 | 27 | 227 | 1.6 | 4.8 | 0.00 | 0.00 | 0.00 | 91 | 1011.3 |
| 20260906025003 | 27 | 224 | 3.2 | 8.0 | 0.00 | 0.00 | 0.00 | 91 | 1011.3 |
| 20260906024503 | 27 | 218 | 3.2 | 8.0 | 0.00 | 0.00 | 0.00 | 91 | 1011.2 |
| 20260906024004 | 27 | 184 | 1.6 | 4.8 | 0.00 | 0.00 | 0.00 | 91 | 1011.5 |
| 20260906023503 | 27 | 213 | 1.6 | 4.8 | 0.00 | 0.00 | 0.00 | 91 | 1011.5 |
| 20260906023004 | 27 | 212 | 0.0 | 3.2 | 0.00 | 0.00 | 0.00 | 91 | 1011.4 |
| 20260906022504 | 27 | 220 | 0.0 | 3.2 | 0.00 | 0.00 | 0.00 | 91 | 1011.4 |
| 20260906022004 | 27 | 220 | 0.0 | 0.0 | 0.00 | 0.00 | 0.00 | 90 | 1011.4 |
| 20260906021503 | 27 | 220 | 0.0 | 3.2 | 0.00 | 0.00 | 0.00 | 90 | 1011.3 |
| 20260906021004 | 27 | 220 | 0.0 | 3.2 | 0.00 | 0.00 | 0.00 | 90 | 1011.2 |
| 20260906020504 | 27 | 203 | 1.6 | 4.8 | 0.00 | 0.00 | 0.00 | 90 | 1011.1 |
| 20260906020004 | 27 | 146 | 0.0 | 4.8 | 0.00 | 0.00 | 0.00 | 90 | 1010.9 |
| 20260906015004 | 27 | 206 | 1.6 | 4.8 | 0.00 | 0.00 | 0.00 | 90 | 1010.7 |
| 20260906014504 | 27 | 210 | 1.6 | 3.2 | 0.00 | 0.00 | 0.00 | 90 | 1010.5 |
| 20260906014003 | 27 | 182 | 1.6 | 3.2 | 0.00 | 0.00 | 0.00 | 90 | 1010.6 |
| 20260906012504 | 27 | 194 | 0.0 | 3.2 | 0.00 | 0.00 | 0.00 | 90 | 1010.5 |
| 20260906012004 | 27 | 194 | 0.0 | 4.8 | 0.00 | 0.00 | 0.00 | 89 | 1010.6 |
| 20260906011504 | 27 | 194 | 1.6 | 4.8 | 0.00 | 0.00 | 0.00 | 89 | 1010.5 |
| 20260906011004 | 27 | 190 | 1.6 | 8.0 | 0.00 | 0.00 | 0.00 | 89 | 1010.5 |
| 20260906005503 | 27 | 176 | 3.2 | 8.0 | 0.00 | 0.00 | 0.00 | 89 | 1010.3 |
| 20260906005004 | 27 | 187 | 1.6 | 8.0 | 0.00 | 0.00 | 0.00 | 88 | 1010.1 |
| 20260906004503 | 27 | 184 | 3.2 | 8.0 | 0.00 | 0.00 | 0.00 | 88 | 1010.1 |
| 20260906003504 | 27 | 148 | 1.6 | 8.0 | 0.00 | 0.00 | 0.00 | 87 | 1010.2 |
| 20260906003003 | 27 | 121 | 0.0 | 8.0 | 0.00 | 0.00 | 0.00 | 87 | 1010.1 |
| 20260906002504 | 27 | 147 | 1.6 | 4.8 | 0.00 | 0.00 | 0.00 | 86 | 1010.0 |
| 20260906002004 | 27 | 184 | 0.0 | 4.8 | 0.00 | 0.00 | 0.00 | 86 | 1009.9 |
| 20260906001503 | 28 | 182 | 1.6 | 4.8 | 0.00 | 0.00 | 0.00 | 86 | 1009.8 |
| 20260906001004 | 28 | 189 | 0.0 | 4.8 | 0.00 | 0.00 | 0.00 | 85 | 1009.8 |
| 20260906000504 | 28 | 179 | 3.2 | 4.8 | 0.00 | 0.00 | 0.00 | 85 | 1009.7 |
| 20260906000004 | 28 | 191 | 1.6 | 4.8 | 0.00 | 0.00 | 0.00 | 84 | 1009.6 |
| 20260905235504 | 28 | 141 | 1.6 | 4.8 | 0.00 | 0.00 | 0.00 | 83 | 1009.6 |
| 20260905234004 | 28 | 214 | 3.2 | 9.7 | 0.00 | 0.00 | 0.00 | 81 | 1009.6 |
| 20260905233504 | 29 | 179 | 1.6 | 4.8 | 0.00 | 0.00 | 0.00 | 80 | 1009.5 |
| 20260905233004 | 29 | 201 | 3.2 | 8.0 | 0.00 | 0.00 | 0.00 | 80 | 1009.6 |
| 20260905232504 | 29 | 180 | 0.0 | 8.0 | 0.00 | 0.00 | 0.00 | 79 | 1009.6 |
| 20260905231503 | 30 | 175 | 3.2 | 9.7 | 0.00 | 0.00 | 0.00 | 79 | 1009.7 |
| 20260905231004 | 30 | 187 | 3.2 | 9.7 | 0.00 | 0.00 | 0.00 | 78 | 1009.8 |
| 20260905230504 | 30 | 179 | 3.2 | 9.7 | 0.00 | 0.00 | 0.00 | 78 | 1009.9 |
| 20260905225503 | 30 | 153 | 3.2 | 8.0 | 0.00 | 0.00 | 0.00 | 77 | 1010.0 |
| 20260905225004 | 30 | 189 | 1.6 | 9.7 | 0.00 | 0.00 | 0.00 | 77 | 1010.0 |
| 20260905224504 | 30 | 196 | 4.8 | 11.3 | 0.00 | 0.00 | 0.00 | 76 | 1010.1 |
| 20260905224004 | 30 | 224 | 3.2 | 11.3 | 0.00 | 0.00 | 0.00 | 76 | 1010.2 |
| 20260905223504 | 30 | 189 | 4.8 | 8.0 | 0.00 | 0.00 | 0.00 | 75 | 1010.2 |
| 20260905223003 | 30 | 220 | 3.2 | 4.8 | 0.00 | 0.00 | 0.00 | 76 | 1010.2 |
| 20260905222503 | 30 | 135 | 0.0 | 8.0 | 0.00 | 0.00 | 0.00 | 77 | 1010.3 |
| 20260905222003 | 30 | 203 | 3.2 | 8.0 | 0.00 | 0.00 | 0.00 | 77 | 1010.4 |
| 20260905221503 | 30 | 184 | 1.6 | 11.3 | 0.00 | 0.00 | 0.00 | 77 | 1010.4 |
| 20260905221004 | 30 | 240 | 4.8 | 11.3 | 0.00 | 0.00 | 0.00 | 77 | 1010.4 |
| 20260905220503 | 30 | 211 | 3.2 | 11.3 | 0.00 | 0.00 | 0.00 | 77 | 1010.5 |
| 20260905220004 | 30 | 201 | 4.8 | 11.3 | 0.00 | 0.00 | 0.00 | 76 | 1010.4 |
| 20260905215004 | 30 | 188 | 1.6 | 8.0 | 0.00 | 0.00 | 0.00 | 77 | 1010.5 |
| 20260905214504 | 30 | 148 | 3.2 | 8.0 | 0.00 | 0.00 | 0.00 | 76 | 1010.5 |
| 20260905213503 | 29 | 107 | 1.6 | 9.7 | 0.00 | 0.00 | 0.00 | 79 | 1010.5 |
| 20260905213004 | 28 | 121 | 4.8 | 12.9 | 0.00 | 0.00 | 0.00 | 80 | 1010.5 |
| 20260905212504 | 28 | 163 | 3.2 | 12.9 | 0.00 | 0.00 | 0.00 | 80 | 1010.5 |
| 20260905212004 | 28 | 151 | 4.8 | 12.9 | 0.00 | 0.00 | 0.00 | 82 | 1010.5 |
| 20260905211503 | 28 | 104 | 3.2 | 8.0 | 0.00 | 0.00 | 0.00 | 82 | 1010.5 |
| 20260905211003 | 28 | 169 | 1.6 | 9.7 | 0.00 | 0.00 | 0.00 | 83 | 1010.6 |
| 20260905210504 | 28 | 115 | 3.2 | 9.7 | 0.00 | 0.00 | 0.00 | 83 | 1010.5 |
| 20260905210003 | 28 | 155 | 3.2 | 9.7 | 0.00 | 0.00 | 0.00 | 83 | 1010.7 |
| 20260905205504 | 28 | 101 | 3.2 | 9.7 | 0.00 | 0.00 | 0.00 | 84 | 1010.7 |
| 20260905204504 | 28 | 180 | 4.8 | 14.5 | 0.00 | 0.00 | 0.00 | 84 | 1010.7 |
| 20260905204003 | 28 | 157 | 3.2 | 14.5 | 0.00 | 0.00 | 0.00 | 83 | 1010.7 |
| 20260905203504 | 28 | 168 | 4.8 | 12.9 | 0.00 | 0.00 | 0.00 | 82 | 1010.8 |
| 20260905203004 | 28 | 171 | 3.2 | 11.3 | 0.00 | 0.00 | 0.00 | 81 | 1010.7 |
| 20260905202503 | 28 | 174 | 4.8 | 9.7 | 0.00 | 0.00 | 0.00 | 80 | 1010.7 |
| 20260905202004 | 28 | 195 | 1.6 | 11.3 | 0.00 | 0.00 | 0.00 | 81 | 1010.7 |
| 20260905201004 | 28 | 112 | 3.2 | 9.7 | 0.00 | 0.00 | 0.00 | 81 | 1010.6 |
| 20260905200503 | 28 | 77 | 1.6 | 4.8 | 0.00 | 0.00 | 0.00 | 82 | 1010.7 |
| 20260905200004 | 28 | 75 | 1.6 | 4.8 | 0.00 | 0.00 | 0.00 | 81 | 1010.7 |
| 20260905194005 | 28 | 101 | 1.6 | 4.8 | 0.00 | 0.00 | 0.00 | 79 | 1010.9 |
| 20260905192504 | 29 | 85 | 3.2 | 4.8 | 0.00 | 0.00 | 0.00 | 76 | 1011.2 |
| 20260905192004 | 29 | 0 | 0.0 | 1.6 | 0.00 | 0.00 | 0.00 | 77 | 1010.8 |
| 20260905191503 | 29 | 0 | 0.0 | 1.6 | 0.00 | 0.00 | 0.00 | 78 | 1010.8 |
| 20260905190504 | 29 | 17 | 0.0 | 4.8 | 0.00 | 0.00 | 0.00 | 79 | 1011.3 |
| 20260905190004 | 29 | 61 | 1.6 | 11.3 | 0.00 | 0.00 | 0.00 | 79 | 1011.7 |
| 20260905184504 | 28 | 82 | 1.6 | 16.1 | 0.00 | 0.00 | 0.00 | 80 | 1011.4 |
| 20260905184005 | 28 | 86 | 3.2 | 16.1 | 0.00 | 0.00 | 0.00 | 79 | 1011.2 |
| 20260905183504 | 29 | 351 | 3.2 | 19.3 | 0.00 | 0.00 | 0.00 | 77 | 1011.4 |
| 20260905183004 | 30 | 358 | 6.4 | 20.9 | 0.00 | 0.00 | 0.00 | 74 | 1011.6 |
| 20260905182004 | 32 | 330 | 9.7 | 20.9 | 0.00 | 0.00 | 0.00 | 69 | 1011.3 |
| 20260905181504 | 33 | 217 | 4.8 | 16.1 | 0.00 | 0.00 | 0.00 | 67 | 1011.3 |
| 20260905181004 | 33 | 344 | 8.0 | 16.1 | 0.00 | 0.00 | 0.00 | 64 | 1011.2 |
| 20260905180503 | 33 | 304 | 8.0 | 16.1 | 0.00 | 0.00 | 0.00 | 64 | 1011.1 |
| 20260905180004 | 33 | 302 | 3.2 | 16.1 | 0.00 | 0.00 | 0.00 | 65 | 1011.1 |
| 20260905175503 | 32 | 325 | 3.2 | 16.1 | 0.00 | 0.00 | 0.00 | 68 | 1011.2 |
| 20260905175004 | 32 | 296 | 4.8 | 16.1 | 0.00 | 0.00 | 0.00 | 67 | 1011.3 |
| 20260905174504 | 32 | 282 | 4.8 | 16.1 | 0.00 | 0.00 | 0.00 | 67 | 1011.4 |
| 20260905173504 | 32 | 289 | 4.8 | 12.9 | 0.00 | 0.00 | 0.00 | 70 | 1011.6 |
| 20260905173004 | 32 | 300 | 4.8 | 12.9 | 0.00 | 0.00 | 0.00 | 70 | 1011.6 |
| 20260905172504 | 32 | 314 | 4.8 | 14.5 | 0.00 | 0.00 | 0.00 | 71 | 1011.6 |
| 20260905172003 | 31 | 347 | 3.2 | 14.5 | 0.00 | 0.00 | 0.00 | 74 | 1011.7 |
| 20260905171504 | 31 | 1 | 3.2 | 14.5 | 0.00 | 0.00 | 0.00 | 74 | 1011.9 |
| 20260905171004 | 31 | 292 | 6.4 | 14.5 | 0.00 | 0.00 | 0.00 | 73 | 1012.0 |
| 20260905170504 | 30 | 334 | 4.8 | 16.1 | 0.00 | 0.00 | 0.00 | 73 | 1012.1 |
| 20260905170004 | 30 | 300 | 8.0 | 16.1 | 0.00 | 0.00 | 0.00 | 74 | 1012.1 |
| 20260905165504 | 30 | 320 | 4.8 | 12.9 | 0.00 | 0.00 | 0.00 | 76 | 1012.2 |
| 20260905164504 | 29 | 297 | 4.8 | 20.9 | 0.00 | 0.00 | 0.00 | 73 | 1012.6 |
| 20260905164004 | 30 | 311 | 8.0 | 20.9 | 0.00 | 0.00 | 0.00 | 70 | 1012.7 |
| 20260905163504 | 31 | 313 | 8.0 | 19.3 | 0.00 | 0.00 | 0.00 | 67 | 1012.7 |
| 20260905163004 | 32 | 327 | 8.0 | 19.3 | 0.00 | 0.00 | 0.00 | 68 | 1012.7 |
| 20260905162503 | 32 | 246 | 6.4 | 14.5 | 0.00 | 0.00 | 0.00 | 70 | 1012.6 |
| 20260905162004 | 31 | 237 | 4.8 | 16.1 | 0.00 | 0.00 | 0.00 | 70 | 1012.7 |
| 20260905161504 | 31 | 348 | 8.0 | 16.1 | 0.00 | 0.00 | 0.00 | 71 | 1012.8 |
| 20260905160504 | 31 | 300 | 4.8 | 14.5 | 0.00 | 0.00 | 0.00 | 72 | 1012.9 |
| 20260905160004 | 31 | 317 | 4.8 | 12.9 | 0.00 | 0.00 | 0.00 | 72 | 1013.0 |
| 20260905155504 | 31 | 296 | 6.4 | 12.9 | 0.00 | 0.00 | 0.00 | 73 | 1013.0 |
| 20260905155004 | 31 | 312 | 4.8 | 14.5 | 0.00 | 0.00 | 0.00 | 75 | 1013.1 |
| 20260905154503 | 31 | 310 | 4.8 | 14.5 | 0.00 | 0.00 | 0.00 | 75 | 1013.1 |
| 20260905154004 | 31 | 248 | 4.8 | 12.9 | 0.00 | 0.00 | 0.00 | 75 | 1013.2 |
| 20260905153003 | 31 | 249 | 4.8 | 19.3 | 0.00 | 0.00 | 0.00 | 76 | 1013.2 |
| 20260905152503 | 31 | 238 | 4.8 | 19.3 | 0.00 | 0.00 | 0.00 | 76 | 1013.3 |
| 20260905151504 | 30 | 227 | 6.4 | 12.9 | 0.00 | 0.00 | 0.00 | 78 | 1013.3 |
| 20260905151004 | 30 | 291 | 4.8 | 12.9 | 0.00 | 0.00 | 0.00 | 79 | 1013.2 |
| 20260905150004 | 30 | 252 | 4.8 | 12.9 | 0.00 | 0.00 | 0.00 | 80 | 1013.4 |
| 20260905145504 | 30 | 236 | 6.4 | 11.3 | 0.00 | 0.00 | 0.00 | 81 | 1013.4 |
| 20260905145004 | 30 | 229 | 3.2 | 8.0 | 0.00 | 0.00 | 0.00 | 83 | 1013.5 |
| 20260905144506 | 30 | 288 | 3.2 | 9.7 | 0.00 | 0.00 | 0.00 | 83 | 1013.4 |
| 20260905143504 | 29 | 282 | 4.8 | 12.9 | 0.00 | 0.00 | 0.00 | 84 | 1013.5 |
| 20260905143004 | 28 | 322 | 3.2 | 8.0 | 0.00 | 0.00 | 0.00 | 85 | 1013.6 |
| 20260905142504 | 28 | 237 | 1.6 | 8.0 | 0.00 | 0.00 | 0.00 | 86 | 1013.5 |
| 20260905142003 | 28 | 218 | 4.8 | 9.7 | 0.00 | 0.00 | 0.00 | 86 | 1013.5 |
| 20260905141503 | 28 | 228 | 1.6 | 11.3 | 0.00 | 0.00 | 0.00 | 87 | 1013.5 |
| 20260905141004 | 28 | 216 | 3.2 | 11.3 | 0.00 | 0.00 | 0.00 | 87 | 1013.5 |
| 20260905140503 | 28 | 206 | 3.2 | 11.3 | 0.00 | 0.00 | 0.00 | 87 | 1013.5 |
| 20260905140004 | 28 | 277 | 3.2 | 11.3 | 0.00 | 0.00 | 0.00 | 87 | 1013.5 |
| 20260905135504 | 28 | 296 | 3.2 | 9.7 | 0.00 | 0.00 | 0.00 | 88 | 1013.5 |
| 20260905135004 | 27 | 247 | 3.2 | 8.0 | 0.00 | 0.00 | 0.00 | 89 | 1013.4 |
| 20260905134503 | 27 | 284 | 1.6 | 11.3 | 0.00 | 0.00 | 0.00 | 89 | 1013.4 |
| 20260905134004 | 27 | 224 | 4.8 | 11.3 | 0.00 | 0.00 | 0.00 | 89 | 1013.4 |
| 20260905133504 | 27 | 222 | 3.2 | 14.5 | 0.00 | 0.00 | 0.00 | 90 | 1013.4 |
| 20260905133004 | 27 | 222 | 3.2 | 14.5 | 0.00 | 0.00 | 0.00 | 90 | 1013.5 |
| 20260905132503 | 27 | 306 | 6.4 | 12.9 | 0.00 | 0.00 | 0.00 | 91 | 1013.4 |
| 20260905132004 | 26 | 314 | 4.8 | 9.7 | 0.00 | 0.00 | 0.00 | 91 | 1013.3 |
| 20260905131504 | 26 | 255 | 3.2 | 9.7 | 0.00 | 0.00 | 0.00 | 92 | 1013.3 |
| 20260905131004 | 26 | 294 | 4.8 | 9.7 | 0.00 | 0.00 | 0.00 | 92 | 1013.4 |
| 20260905130504 | 26 | 274 | 4.8 | 9.7 | 0.00 | 0.00 | 0.00 | 93 | 1013.3 |
| 20260905130004 | 26 | 236 | 3.2 | 8.0 | 0.00 | 0.00 | 0.00 | 93 | 1013.4 |
| 20260905125503 | 25 | 245 | 3.2 | 8.0 | 0.00 | 0.00 | 0.00 | 93 | 1013.4 |
| 20260905124504 | 25 | 244 | 1.6 | 4.8 | 0.00 | 0.00 | 0.00 | 93 | 1013.4 |
| 20260905124004 | 25 | 214 | 1.6 | 4.8 | 0.00 | 0.00 | 0.00 | 93 | 1013.5 |
| 20260905123504 | 25 | 253 | 1.6 | 4.8 | 0.00 | 0.00 | 0.00 | 93 | 1013.4 |
| 20260905123004 | 25 | 273 | 3.2 | 4.8 | 0.00 | 0.00 | 0.00 | 93 | 1013.2 |